Location: Central Coast NSW, Australia
(33.2407°S, 151.4316°E)
Time: 13:32:17
(UTC+10:00)

Hubble Space Telescope - Visible Passes

Search period start: 18 August 2019 00:00
Search period end: 28 August 2019 00:00
Orbit: 536 x 540 km, 28.5° (Epoch: 17 August)

Date Brightness Start Highest point End Pass type
(mag) Time Alt. Az. Time Alt. Az. Time Alt. Az.
18 Aug 2.5 05:41:47 10° NW 05:45:19 27° NNE 05:48:53 10° ENE visible
19 Aug 3.8 03:55:32 11° NE 03:55:32 11° NE 03:55:52 10° NE visible
19 Aug 2.3 05:31:01 10° NW 05:34:43 31° NNE 05:38:26 10° ENE visible
20 Aug 3.9 03:45:46 11° ENE 03:45:46 11° ENE 03:45:55 10° ENE visible
20 Aug 2.0 05:21:07 15° NW 05:24:08 34° N 05:27:56 10° ENE visible
21 Aug 1.8 05:11:17 21° NW 05:13:32 38° N 05:17:26 10° ENE visible
22 Aug 1.7 05:01:24 28° NW 05:02:57 40° N 05:06:54 10° ENE visible
23 Aug 1.5 04:51:28 36° NNW 04:52:22 42° N 04:56:21 10° ENE visible
24 Aug 1.4 04:41:31 42° NNW 04:41:48 43° N 04:45:47 10° ENE visible
25 Aug 1.6 04:31:33 42° NNE 04:31:33 42° NNE 04:35:13 10° ENE visible
26 Aug 2.0 04:21:36 35° NNE 04:21:36 35° NNE 04:24:37 10° ENE visible
27 Aug 2.5 04:11:41 27° NE 04:11:41 27° NE 04:13:59 10° ENE visible
27 Aug 2.6 05:47:44 10° WNW 05:50:52 21° NNW 05:54:01 10° NNE visible
